FENGYUN 1C DEB

Satellite information

Favourite Embed

Satellite Type and Status

DEBRISIN ORBIT

Key statistics

Satellite FENGYUN 1C DEB at a glance.

Uptime

9609

Days in orbit

Revolutions

≈ 14.8

Per day

Orbit

SSO

Sun Synchronous Orbit

Inclination

99.1

Latest

Satellite identification and parameters

Extended collection of information and parameters for FENGYUN 1C DEB.

Object identification

Identified? True

Debris? True

Object name: FENGYUN 1C DEB

International designator: 1999-025DUC

Object number (NORAD): 36203

Object ID (CCSDS): 36203

Country: PEOPLES REPUBLIC OF CHINA (PRC)

Current information (Y/N): Y

RCS size: SMALL

Orbital parameters

Period: 97.623 minutes

Inclination: 99.0825 deg

SMA: 7023.103 km

Apoapsis: 708.381 km

Periapsis: 581.555 km

RAAN: 169.8842 deg

Eccentricy: 0.00902916

Argument of periapsis: 123.3388 deg

Mean anomaly: 237.6502 deg

Mean motion: 14.75058432 rev/day

Mean motion (dot): 0.00008333 rev/day2

B* drag term: 0.0011660871 1/REarth

Two-line elements (TLE)

Creation date: Aug. 27, 2025, 8:01 p.m.

Reference frame: TEME

Reference center: EARTH

Epoch: Aug. 27, 2025, 12:50 p.m. UTC

TLE line 0: 0 FENGYUN 1C DEB

TLE line 1: 1 36203U 99025DUC 25239.53506804 .00008333 00000-0 11661-2 0 9995

TLE line 2: 2 36203 99.0825 169.8842 0090292 123.3388 237.6502 14.75058432618477

Live tracking on map

Real-time ground track for satellite FENGYUN 1C DEB.

In-orbit conjunctions

A list of the most updated potential collisions computed for object FENGYUN 1C DEB.

Target Orbit TCA Probability of collision Miss distance Type
OKEAN O SSO 2024-11-15 07:17:42 0.0001426938 430.0 (m) PAYLOAD
CZ-6A DEB LEO 2024-10-03 05:33:28 0.000149774 500.0 (m) DEBRIS

Associated space launch

Chinese polar orbiting meteorological satellite

FENGYUN 1C DEB was lifted into orbit during the mission ‘Long March 4B | Feng Yun 1C’, on board a Long March 4B space rocket.

The launch took place on May 10, 1999, 1:33 a.m. from Launch Complex 7.

For more information about the launch, click the button.

Launch to space Long March 4B | Feng Yun 1C
Long March 4B | Feng Yun 1C

Agency: N/A

Status: Launch Successful

Launch date: May 10, 1999, 1:33 a.m. UTC

Rocket: Long March 4B

Launch pad: Launch Complex 7

Location: Taiyuan Satellite Launch Center, People's Republic of China

...

Latest news about this satellite

There are no fresh news available about this satellite. Check back as we update our databases every day.


Newsletter sign-up

Weekly statistics, charts and insights to help you stay on top of the space industry.